CQ0XPA-11 Weather Reports


time (UTC)temp
C
wind
direction
speed
KPH
gust
KPH
rain 1hr
cm
rain 24hr
cm
rain mn
cm
humidity
%
barometer
mb
20190616065418 13 270 0.0 0.0 0.00 0.00 0.00 96 1013.0
20190616065216 13 112 0.0 0.0 0.00 0.00 0.00 97 1012.9
20190616065014 12 45 0.0 0.0 0.00 0.00 0.00 97 1012.9
20190616064812 12 112 0.0 0.0 0.00 0.00 0.00 97 1012.9
20190616064610 12 0 0.0 0.0 0.00 0.00 0.00 97 1012.8
20190616064408 12 0 0.0 0.0 0.00 0.00 0.00 97 1012.9
20190616064206 12 270 0.0 0.0 0.00 0.00 0.00 98 1012.8
20190616064003 12 22 0.0 0.0 0.00 0.00 0.00 98 1012.8
20190616063802 12 315 0.0 0.0 0.00 0.00 0.00 97 1012.8
20190616063600 12 45 0.0 0.0 0.00 0.00 0.00 98 1012.8
20190616063358 12 0 0.0 0.0 0.00 0.00 0.00 98 1012.8
20190616063155 12 45 0.0 0.0 0.00 0.00 0.00 98 1012.9
20190616062954 12 270 0.0 0.0 0.00 0.00 0.00 99 1012.8
20190616062751 12 270 0.0 0.0 0.00 0.00 0.00 99 1012.8
20190616062549 12 112 0.0 0.0 0.00 0.00 0.00 99 1012.7
20190616062347 12 45 0.0 0.0 0.00 0.00 0.00 99 1012.8
20190616062145 12 112 0.0 0.0 0.00 0.00 0.00 99 1012.8
20190616061943 12 112 0.0 0.0 0.00 0.00 0.00 99 1012.8
20190616061741 12 67 0.0 0.0 0.00 0.00 0.00 99 1012.8
20190616061539 12 45 0.0 0.0 0.00 0.00 0.00 100 1012.7
20190616061337 12 78 0.0 0.0 0.00 0.00 0.00 100 1012.8
20190616061134 12 78 0.0 0.0 0.00 0.00 0.00 99 1012.8
20190616060933 12 112 0.0 0.0 0.00 0.00 0.00 100 1012.7
20190616060730 12 0 0.0 0.0 0.00 0.00 0.00 100 1012.7
20190616060529 12 0 0.0 0.0 0.00 0.00 0.00 100 1012.6
20190616060326 12 112 0.0 0.0 0.00 0.00 0.00 100 1012.5
20190616060125 11 270 0.0 0.0 0.00 0.00 0.00 100 1012.7
20190616055922 11 112 0.0 0.0 0.00 0.00 0.00 100 1012.7
20190616055720 11 112 0.0 0.0 0.00 0.00 0.00 100 1012.7
20190616055518 11 270 0.0 0.0 0.00 0.00 0.00 100 1012.7
20190616055316 11 270 0.0 0.0 0.00 0.00 0.00 100 1012.6
20190616055114 11 112 0.0 0.0 0.00 0.00 0.00 100 1012.6
20190616054912 11 45 0.0 0.0 0.00 0.00 0.00 100 1012.7
20190616054710 11 0 0.0 0.0 0.00 0.00 0.00 100 1012.6
20190616054508 11 22 0.0 0.0 0.00 0.00 0.00 100 1012.5
20190616054305 11 112 0.0 0.0 0.00 0.00 0.00 100 1012.5
20190616054104 11 112 0.0 0.0 0.00 0.00 0.00 100 1012.6
20190616053901 11 22 0.0 0.0 0.00 0.00 0.00 100 1012.5
20190616053700 11 270 0.0 0.0 0.00 0.00 0.00 100 1012.5
20190616053457 11 270 0.0 0.0 0.00 0.00 0.00 100 1012.4
20190616053256 11 45 0.0 0.0 0.00 0.00 0.00 100 1012.5
20190616053053 11 45 0.0 0.0 0.00 0.00 0.00 100 1012.4
20190616052851 11 45 0.0 0.0 0.00 0.00 0.00 100 1012.5
20190616052649 11 45 0.0 0.0 0.00 0.00 0.00 100 1012.5
20190616052447 11 45 0.0 0.0 0.00 0.00 0.00 100 1012.4
20190616052245 11 112 0.0 0.0 0.00 0.00 0.00 100 1012.5
20190616052043 11 45 0.0 0.0 0.00 0.00 0.00 100 1012.5
20190616051841 11 45 0.0 0.0 0.00 0.00 0.00 100 1012.5
20190616051639 11 45 0.0 0.0 0.00 0.00 0.00 100 1012.6
20190616051436 11 270 0.0 0.0 0.00 0.00 0.00 100 1012.5
20190616051235 11 225 0.0 0.0 0.00 0.00 0.00 100 1012.4
20190616051032 11 135 0.0 0.0 0.00 0.00 0.00 100 1012.5
20190616050831 11 45 0.0 0.0 0.00 0.00 0.00 100 1012.4
20190616050628 11 112 0.0 0.0 0.00 0.00 0.00 99 1012.4
20190616050427 11 0 0.0 0.0 0.00 0.00 0.00 99 1012.3
20190616050224 11 270 0.0 0.0 0.00 0.00 0.00 100 1012.4
20190616050022 11 112 0.0 0.0 0.00 0.00 0.00 100 1012.5
20190616045820 11 45 0.0 0.0 0.00 0.00 0.00 99 1012.4
20190616045618 11 270 0.0 0.0 0.00 0.00 0.00 100 1012.4
20190616045416 11 270 0.0 0.0 0.00 0.00 0.00 99 1012.4
20190616045214 11 270 0.0 0.0 0.00 0.00 0.00 99 1012.4
20190616045012 11 112 0.0 0.0 0.00 0.00 0.00 99 1012.4
20190616044607 11 45 0.0 0.0 0.00 0.00 0.00 97 1012.5
20190616044406 11 270 0.0 0.0 0.00 0.00 0.00 98 1012.4
20190616044203 11 270 0.0 0.0 0.00 0.00 0.00 96 1012.5
20190616044002 11 270 0.0 0.0 0.00 0.00 0.00 95 1012.6
20190616043759 11 180 0.0 0.0 0.00 0.00 0.00 95 1012.6
20190616043558 11 270 0.0 0.0 0.00 0.00 0.00 94 1012.6
20190616043355 11 0 0.0 0.0 0.00 0.00 0.00 95 1012.5
20190616042746 11 90 0.0 0.0 0.00 0.00 0.00 95 1012.4
20190616042544 11 180 0.0 0.0 0.00 0.00 0.00 95 1012.5
20190616042342 11 45 0.0 0.0 0.00 0.00 0.00 94 1012.5
20190616042140 11 270 0.0 0.0 0.00 0.00 0.00 94 1012.5
20190616041938 11 45 0.0 0.0 0.00 0.00 0.00 93 1012.5
20190616041736 11 157 0.0 0.0 0.00 0.00 0.00 94 1012.5
20190616041534 11 45 0.0 0.0 0.00 0.00 0.00 93 1012.5
20190616041331 11 45 0.0 0.0 0.00 0.00 0.00 92 1012.5
20190616041130 11 270 0.0 0.0 0.00 0.00 0.00 92 1012.5
20190616040927 11 270 0.0 0.0 0.00 0.00 0.00 92 1012.5
20190616040119 11 45 0.0 0.0 0.00 0.00 0.00 91 1012.5
20190616034907 12 45 0.0 0.0 0.00 0.00 0.00 91 1012.4
20190616034705 12 45 0.0 0.0 0.00 0.00 0.00 90 1012.4
20190616034502 12 270 0.0 0.0 0.00 0.00 0.00 90 1012.4
20190616034301 12 45 0.0 0.0 0.00 0.00 0.00 90 1012.5
20190616033857 12 270 0.0 0.0 0.00 0.00 0.00 89 1012.5
20190616033654 12 45 0.0 0.0 0.00 0.00 0.00 89 1012.4
20190616033453 12 112 0.0 0.0 0.00 0.00 0.00 89 1012.5
20190616033250 12 45 0.0 0.0 0.00 0.00 0.00 89 1012.5
20190616033048 12 112 0.0 0.0 0.00 0.00 0.00 89 1012.6
20190616032846 12 270 0.0 0.0 0.00 0.00 0.00 90 1012.6
20190616032644 12 90 0.0 0.0 0.00 0.00 0.00 89 1012.6
20190616032442 12 270 0.0 0.0 0.00 0.00 0.00 89 1012.7
20190616032240 12 0 0.0 0.0 0.00 0.00 0.00 89 1012.7
20190616032038 12 45 0.0 0.0 0.00 0.00 0.00 89 1012.7
20190616031836 12 45 0.0 0.0 0.00 0.00 0.00 90 1012.8
20190616031633 12 45 0.0 0.0 0.00 0.00 0.00 91 1012.8
20190616031432 12 45 0.0 0.0 0.00 0.00 0.00 89 1012.8
20190616031229 12 270 0.0 0.0 0.00 0.00 0.00 89 1012.7
20190616031028 12 112 0.0 0.0 0.00 0.00 0.00 88 1012.7
20190616030825 12 45 0.0 0.0 0.00 0.00 0.00 88 1012.7
20190616030624 12 45 0.0 0.0 0.00 0.00 0.00 88 1012.7
20190616030421 12 112 0.0 0.0 0.00 0.00 0.00 88 1012.8
20190616030220 12 270 0.0 0.0 0.00 0.00 0.00 88 1012.8
20190616030017 12 45 0.0 0.0 0.00 0.00 0.00 87 1012.7
20190616025815 12 45 0.0 0.0 0.00 0.00 0.00 89 1012.8
20190616025613 12 270 0.0 0.0 0.00 0.00 0.00 88 1012.8
20190616025411 12 45 0.0 0.0 0.00 0.00 0.00 88 1012.9
20190616025209 12 180 0.0 0.0 0.00 0.00 0.00 87 1012.8
20190616025007 12 112 0.0 0.0 0.00 0.00 0.00 87 1012.7
20190616024804 12 180 0.0 0.0 0.00 0.00 0.00 87 1012.8
20190616024603 12 112 0.0 0.0 0.00 0.00 0.00 87 1012.7
20190616024400 12 45 0.0 0.0 0.00 0.00 0.00 87 1012.6
20190616024159 12 157 0.0 0.0 0.00 0.00 0.00 86 1012.8
20190616023956 12 270 0.0 0.0 0.00 0.00 0.00 87 1012.8
20190616023755 12 45 0.0 0.0 0.00 0.00 0.00 87 1012.8
20190616023552 12 45 0.0 0.0 0.00 0.00 0.00 86 1012.8
20190616023350 12 45 0.0 0.0 0.00 0.00 0.00 87 1012.9
20190616023148 12 45 0.0 0.0 0.00 0.00 0.00 86 1012.9
20190616022946 12 180 0.0 0.0 0.00 0.00 0.00 87 1012.7
20190616022744 12 112 0.0 0.0 0.00 0.00 0.00 86 1012.8
20190616022542 12 0 0.0 0.0 0.00 0.00 0.00 84 1013.0
20190616022340 12 45 0.0 0.0 0.00 0.00 0.00 85 1012.8
20190616022138 12 270 0.0 0.0 0.00 0.00 0.00 84 1013.0
20190616021935 12 45 0.0 0.0 0.00 0.00 0.00 84 1012.9
20190616021734 12 270 0.0 0.0 0.00 0.00 0.00 84 1013.0
20190616021531 12 270 0.0 0.0 0.00 0.00 0.00 83 1013.1
20190616021330 12 270 0.0 0.0 0.00 0.00 0.00 83 1013.1
20190616021127 12 45 0.0 0.0 0.00 0.00 0.00 84 1013.1
20190616020926 12 180 0.0 0.0 0.00 0.00 0.00 83 1013.1
20190616020723 12 112 0.0 0.0 0.00 0.00 0.00 83 1013.1
20190616020521 12 112 0.0 0.0 0.00 0.00 0.00 83 1013.1
20190616020319 12 112 0.0 0.0 0.00 0.00 0.00 82 1013.1
20190616020117 12 112 0.0 0.0 0.00 0.00 0.00 83 1013.1
20190616015915 12 180 0.0 0.0 0.00 0.00 0.00 83 1013.1
20190616015713 12 112 0.0 0.0 0.00 0.00 0.00 83 1013.2
20190616015511 12 45 0.0 0.0 0.00 0.00 0.00 82 1013.2
20190616015309 12 33 0.0 0.0 0.00 0.00 0.00 83 1013.1
20190616015106 12 45 0.0 0.0 0.00 0.00 0.00 83 1013.2
20190616014905 12 112 0.0 0.0 0.00 0.00 0.00 83 1013.4
20190616014702 12 0 0.0 0.0 0.00 0.00 0.00 82 1013.2
20190616014501 12 135 0.0 0.0 0.00 0.00 0.00 82 1013.3
20190616014258 12 22 0.0 0.0 0.00 0.00 0.00 82 1013.2
20190616014057 12 45 0.0 0.0 0.00 0.00 0.00 81 1013.2
20190616013854 12 112 0.0 0.0 0.00 0.00 0.00 81 1013.3
20190616013652 12 270 0.0 0.0 0.00 0.00 0.00 82 1013.2
20190616013450 12 270 0.0 0.0 0.00 0.00 0.00 81 1013.2
20190616013248 12 112 0.0 0.0 0.00 0.00 0.00 81 1013.2
20190616012844 12 45 0.0 0.0 0.00 0.00 0.00 81 1013.4
20190616012642 12 22 0.0 0.0 0.00 0.00 0.00 81 1013.3
20190616012440 12 112 0.0 0.0 0.00 0.00 0.00 81 1013.3
20190616012238 12 112 0.0 0.0 0.00 0.00 0.00 81 1013.4
20190616012036 12 270 0.0 0.0 0.00 0.00 0.00 82 1013.3
20190616011833 12 112 0.0 0.0 0.00 0.00 0.00 81 1013.4
20190616011632 12 0 0.0 0.0 0.00 0.00 0.00 80 1013.3
20190616011429 12 270 0.0 0.0 0.00 0.00 0.00 81 1013.4
20190616011228 12 112 0.0 0.0 0.00 0.00 0.00 81 1013.4
20190616011025 12 112 0.0 0.0 0.00 0.00 0.00 81 1013.5
20190616010824 12 45 0.0 0.0 0.00 0.00 0.00 81 1013.3
20190616010621 12 112 0.0 0.0 0.00 0.00 0.00 80 1013.5
20190616010420 12 0 0.0 0.0 0.00 0.00 0.00 80 1013.4
20190616010217 12 45 0.0 0.0 0.00 0.00 0.00 80 1013.4
20190616010015 12 270 0.0 0.0 0.00 0.00 0.00 80 1013.4
20190616005813 12 112 0.0 0.0 0.00 0.00 0.00 80 1013.4
20190616005611 12 45 0.0 0.0 0.00 0.00 0.00 80 1013.4
20190616005409 12 112 0.0 0.0 0.00 0.00 0.00 80 1013.5
20190616005207 12 45 0.0 0.0 0.00 0.00 0.00 80 1013.5
20190616005005 12 0 0.0 0.0 0.00 0.00 0.00 80 1013.5
20190616004803 12 0 0.0 0.0 0.00 0.00 0.00 80 1013.5
20190616004600 12 270 0.0 0.0 0.00 0.00 0.00 81 1013.4
20190616004359 12 45 0.0 0.0 0.00 0.00 0.00 80 1013.5
20190616004156 12 270 0.0 0.0 0.00 0.00 0.00 80 1013.4
20190616003955 12 270 0.0 0.0 0.00 0.00 0.00 80 1013.4
20190616003752 12 180 0.0 0.0 0.00 0.00 0.00 80 1013.5
20190616003550 12 0 0.0 0.0 0.00 0.00 0.00 80 1013.6
20190616003348 12 270 0.0 0.0 0.00 0.00 0.00 80 1013.6
20190616003146 12 112 0.0 0.0 0.00 0.00 0.00 80 1013.6
20190616002944 13 112 0.0 0.0 0.00 0.00 0.00 80 1013.7
20190616002742 13 270 0.0 0.0 0.00 0.00 0.00 80 1013.6
20190616002540 13 270 0.0 0.0 0.00 0.00 0.00 81 1013.6
20190616002338 13 270 0.0 0.0 0.00 0.00 0.00 80 1013.5
20190616002135 13 270 0.0 0.0 0.00 0.00 0.00 80 1013.6
20190616001934 13 112 0.0 0.0 0.00 0.00 0.00 81 1013.7
20190616001731 13 112 0.0 0.0 0.00 0.00 0.00 80 1013.8
20190616001530 13 112 0.0 0.0 0.00 0.00 0.00 80 1013.8
20190616001328 13 112 0.0 0.0 0.00 0.00 0.00 80 1013.7
20190616001126 13 33 0.0 0.0 0.00 0.00 0.00 80 1013.8
20190616000923 13 112 0.0 0.0 0.00 0.00 0.00 80 1013.9
20190616000721 13 45 0.0 0.0 0.00 0.00 0.00 80 1013.9
20190616000519 13 270 0.0 0.0 0.00 0.00 0.00 80 1013.9
20190616000317 13 112 0.0 0.0 0.00 0.00 0.00 80 1014.0
20190616000115 13 45 0.0 0.0 0.00 0.00 0.00 80 1014.0
20190615235913 13 0 0.0 0.0 0.00 0.00 0.00 80 1013.9
20190615235711 13 90 0.0 0.0 0.00 0.00 0.00 79 1014.0
20190615235509 13 270 0.0 0.0 0.00 0.00 0.00 79 1014.0
20190615235306 13 270 0.0 0.0 0.00 0.00 0.00 79 1014.2
20190615235105 13 45 0.0 0.0 0.00 0.00 0.00 79 1014.1
20190615234902 13 112 0.0 0.0 0.00 0.00 0.00 80 1014.1
20190615234701 13 45 0.0 0.0 0.00 0.00 0.00 79 1014.1
20190615234458 13 0 0.0 0.0 0.00 0.00 0.00 80 1014.1
20190615234257 13 112 0.0 0.0 0.00 0.00 0.00 79 1014.2
20190615234054 13 270 0.0 0.0 0.00 0.00 0.00 79 1014.2
20190615233853 13 78 0.0 0.0 0.00 0.00 0.00 80 1014.3
20190615233650 13 270 0.0 0.0 0.00 0.00 0.00 79 1014.3
20190615233448 13 45 0.0 0.0 0.00 0.00 0.00 79 1014.4
20190615233246 13 112 0.0 0.0 0.00 0.00 0.00 79 1014.4
20190615233044 13 0 0.0 0.0 0.00 0.00 0.00 79 1014.4
20190615232842 13 0 0.0 0.0 0.00 0.00 0.00 79 1014.6
20190615232437 13 112 0.0 0.0 0.00 0.00 0.00 78 1014.7
20190615232236 13 270 0.0 0.0 0.00 0.00 0.00 79 1014.7
20190615232033 13 270 0.0 0.0 0.00 0.00 0.00 79 1014.7
20190615231832 13 112 0.0 0.0 0.00 0.00 0.00 78 1014.8
20190615231629 13 112 0.0 0.0 0.00 0.00 0.00 79 1014.7
20190615231428 13 0 0.0 0.0 0.00 0.00 0.00 78 1014.7
20190615231225 13 270 0.0 0.0 0.00 0.00 0.00 79 1014.6
20190615231023 13 112 0.0 0.0 0.00 0.00 0.00 79 1014.7
20190615230821 13 112 0.0 0.0 0.00 0.00 0.00 79 1014.6
20190615230619 13 112 0.0 0.0 0.00 0.00 0.00 79 1014.6
20190615230417 13 0 0.0 0.0 0.00 0.00 0.00 79 1014.6
20190615230216 13 112 0.0 0.0 0.00 0.00 0.00 79 1014.7
20190615230013 13 270 0.0 0.0 0.00 0.00 0.00 79 1014.6
20190615225811 13 112 0.0 0.0 0.00 0.00 0.00 79 1014.6
20190615225608 13 112 0.0 0.0 0.00 0.00 0.00 80 1014.5
20190615225407 13 112 0.0 0.0 0.00 0.00 0.00 80 1014.6
20190615225204 13 112 0.0 0.0 0.00 0.00 0.00 80 1014.5
20190615224559 13 112 0.0 0.0 0.00 0.00 0.00 80 1014.5
20190615224356 13 270 0.0 0.0 0.00 0.00 0.00 80 1014.5
20190615224154 13 112 0.0 0.0 0.00 0.00 0.00 80 1014.5
20190615223952 14 112 0.0 0.0 0.00 0.00 0.00 80 1014.6
20190615223750 14 45 0.0 0.0 0.00 0.00 0.00 80 1014.5
20190615223548 14 270 0.0 0.0 0.00 0.00 0.00 80 1014.5
20190615223346 14 112 0.0 0.0 0.00 0.00 0.00 80 1014.5
20190615223144 14 270 0.0 0.0 0.00 0.00 0.00 80 1014.6
20190615222942 14 112 0.0 0.0 0.00 0.00 0.00 79 1014.7
20190615222740 14 112 0.0 0.0 0.00 0.00 0.00 79 1014.6
20190615222538 14 157 0.0 0.0 0.00 0.00 0.00 80 1014.6
20190615222335 14 270 0.0 0.0 0.00 0.00 0.00 79 1014.5
20190615222134 14 270 0.0 0.0 0.00 0.00 0.00 79 1014.5
20190615221931 14 112 0.0 0.0 0.00 0.00 0.00 78 1014.5
20190615221730 14 112 0.0 0.0 0.00 0.00 0.00 80 1014.5
20190615221528 14 270 0.0 0.0 0.00 0.00 0.00 80 1014.5
20190615221325 14 112 0.0 0.0 0.00 0.00 0.00 80 1014.5
20190615221123 14 112 0.0 0.0 0.00 0.00 0.00 80 1014.5
20190615220921 14 112 0.0 0.0 0.00 0.00 0.00 79 1014.5
20190615220719 14 112 0.0 0.0 0.00 0.00 0.00 79 1014.5
20190615220517 14 270 0.0 0.0 0.00 0.00 0.00 78 1014.6
20190615220315 14 270 0.0 0.0 0.00 0.00 0.00 78 1014.6
20190615220113 14 112 0.0 0.0 0.00 0.00 0.00 79 1014.5
20190615215911 15 112 0.0 0.0 0.00 0.00 0.00 78 1014.5
20190615215709 15 112 0.0 0.0 0.00 0.00 0.00 78 1014.6
20190615215506 15 112 0.0 0.0 0.00 0.00 0.00 78 1014.6
20190615215305 15 112 0.0 0.0 0.00 0.00 0.00 78 1014.6
20190615215102 15 112 0.0 0.0 0.00 0.00 0.00 78 1014.7
20190615214901 15 112 0.0 0.0 0.00 0.00 0.00 78 1014.7
20190615214658 15 22 0.0 0.0 0.00 0.00 0.00 78 1014.6
20190615214457 15 45 0.0 0.0 0.00 0.00 0.00 78 1014.7
20190615214254 15 270 0.0 0.0 0.00 0.00 0.00 77 1014.6
20190615214052 15 22 0.0 0.0 0.00 0.00 0.00 78 1014.7
20190615213850 15 112 0.0 0.0 0.00 0.00 0.00 76 1014.7
20190615213648 15 270 0.0 0.0 0.00 0.00 0.00 76 1014.7
20190615213446 15 112 0.0 0.0 0.00 0.00 0.00 76 1014.7
20190615213244 15 270 0.0 0.0 0.00 0.00 0.00 76 1014.6
20190615213042 15 270 0.0 0.0 0.00 0.00 0.00 76 1014.7
20190615212840 15 270 0.0 0.0 0.00 0.00 0.00 76 1014.6
20190615212637 15 112 0.0 0.0 0.00 0.00 0.00 76 1014.6
20190615212436 15 112 0.0 0.0 0.00 0.00 0.00 75 1014.6
20190615212233 15 112 0.0 0.0 0.00 0.00 0.00 76 1014.6
20190615212032 15 270 0.0 0.0 0.00 0.00 0.00 74 1014.6
20190615211829 15 0 0.0 0.0 0.00 0.00 0.00 74 1014.6
20190615211628 15 112 0.0 0.0 0.00 0.00 0.00 74 1014.6
20190615211425 15 0 0.0 0.0 0.00 0.00 0.00 74 1014.6
20190615211223 15 112 0.0 0.0 0.00 0.00 0.00 74 1014.7
20190615211021 15 112 0.0 0.0 0.00 0.00 0.00 73 1014.6
20190615210819 15 270 0.0 0.0 0.00 0.00 0.00 74 1014.7
20190615210617 15 112 0.0 0.0 0.00 0.00 0.00 73 1014.6
20190615210415 15 270 0.0 0.0 0.00 0.00 0.00 73 1014.5
20190615210213 15 270 0.0 0.0 0.00 0.00 0.00 73 1014.5
20190615210011 15 112 0.0 0.0 0.00 0.00 0.00 72 1014.4
20190615205808 16 112 0.0 0.0 0.00 0.00 0.00 71 1014.5
20190615205607 16 45 0.0 0.0 0.00 0.00 0.00 71 1014.4
20190615205405 16 0 0.0 0.0 0.00 0.00 0.00 71 1014.5
20190615205203 16 270 0.0 0.0 0.00 0.00 0.00 70 1014.4
20190615205000 16 112 0.0 0.0 0.00 0.00 0.00 71 1014.4
20190615204759 16 112 0.0 0.0 0.00 0.00 0.00 69 1014.4
20190615204556 16 112 0.0 0.0 0.00 0.00 0.00 70 1014.3
20190615204354 16 112 0.0 0.0 0.00 0.00 0.00 69 1014.3
20190615204152 16 112 0.0 0.0 0.00 0.00 0.00 68 1014.3
20190615203950 16 112 0.0 0.0 0.00 0.00 0.00 68 1014.3
20190615203748 16 112 0.0 0.0 0.00 0.00 0.00 68 1014.4
20190615203546 16 112 0.0 0.0 0.00 0.00 0.00 67 1014.3
20190615203344 16 112 0.0 0.0 0.00 0.00 0.00 67 1014.3
20190615203142 16 270 0.0 0.0 0.00 0.00 0.00 66 1014.3
20190615202939 16 270 0.0 0.0 0.00 0.00 0.00 65 1014.3
20190615202535 16 270 0.0 0.0 0.00 0.00 0.00 64 1014.3
20190615202334 16 112 0.0 0.0 0.00 0.00 0.00 64 1014.2
20190615202131 16 112 0.0 0.0 0.00 0.00 0.00 64 1014.2
20190615201930 17 270 0.0 0.0 0.00 0.00 0.00 63 1014.1
20190615201727 17 270 0.0 0.0 0.00 0.00 0.00 63 1014.2
20190615201525 17 112 0.0 0.0 0.00 0.00 0.00 63 1014.1
20190615201323 17 270 0.0 0.0 0.00 0.00 0.00 62 1014.0
20190615201121 17 270 0.0 0.0 0.00 0.00 0.00 61 1014.1
20190615200919 17 112 0.0 0.0 0.00 0.00 0.00 61 1014.0
20190615200717 17 0 0.0 0.0 0.00 0.00 0.00 60 1014.1
20190615200515 17 0 0.0 0.0 0.00 0.00 0.00 60 1014.1
20190615200313 17 270 0.0 0.0 0.00 0.00 0.00 59 1014.0
20190615195706 18 45 0.0 0.0 0.00 0.00 0.00 59 1014.0
20190615194454 18 270 0.0 0.0 0.00 0.00 0.00 58 1013.9
20190615194252 18 0 0.0 0.0 0.00 0.00 0.00 58 1014.0
20190615194050 19 112 0.0 0.0 0.00 0.00 0.00 58 1014.0
20190615193848 19 270 0.0 0.0 0.00 0.00 0.00 57 1013.9
20190615193646 19 270 0.0 0.0 0.00 0.00 0.00 58 1013.9
20190615193444 19 112 0.0 0.0 0.00 0.00 0.00 58 1013.9
20190615193242 19 270 0.0 0.0 0.00 0.00 0.00 57 1013.9
20190615193040 19 0 0.0 0.0 0.00 0.00 0.00 58 1013.9
20190615192838 19 0 0.0 0.0 0.00 0.00 0.00 58 1013.9
20190615192636 20 270 0.0 0.0 0.00 0.00 0.00 57 1013.8
20190615192433 20 112 0.0 0.0 0.00 0.00 0.00 56 1013.9
20190615192232 20 112 0.0 0.0 0.00 0.00 0.00 57 1013.9
20190615192029 20 112 0.0 0.0 0.00 0.00 0.00 56 1013.9
20190615191827 20 270 0.0 0.0 0.00 0.00 0.00 56 1013.9
20190615191625 20 112 0.0 0.0 0.00 0.00 0.00 56 1013.9
20190615191423 20 112 0.0 0.0 0.00 0.00 0.00 56 1014.0
20190615191221 20 112 0.0 0.0 0.00 0.00 0.00 56 1014.0
20190615191019 20 270 0.0 0.0 0.00 0.00 0.00 56 1014.0
20190615190817 20 112 0.0 0.0 0.00 0.00 0.00 56 1014.0
20190615190615 20 0 0.0 0.0 0.00 0.00 0.00 56 1014.0
20190615190413 20 112 0.0 0.0 0.00 0.00 0.00 56 1014.0
20190615190211 20 112 0.0 0.0 0.00 0.00 0.00 56 1013.9
20190615190008 20 112 0.0 0.0 0.00 0.00 0.00 56 1013.9
20190615185604 20 270 0.0 0.0 0.00 0.00 0.00 56 1013.9
20190615185403 21 112 0.0 0.0 0.00 0.00 0.00 55 1014.0
20190615185200 21 112 0.0 0.0 0.00 0.00 0.00 54 1013.9
20190615184959 21 0 0.0 0.0 0.00 0.00 0.00 55 1013.9
20190615184756 21 0 0.0 0.0 0.00 0.00 0.00 54 1013.8
20190615184554 21 0 0.0 0.0 0.00 0.00 0.00 54 1013.9
20190615184352 21 0 0.0 0.0 0.00 0.00 0.00 53 1013.9
20190615183948 21 112 0.0 0.0 0.00 0.00 0.00 53 1013.8
20190615183746 21 112 0.0 0.0 0.00 0.00 0.00 54 1013.9
20190615183544 21 112 0.0 0.0 0.00 0.00 0.00 53 1013.9
20190615183134 21 315 0.0 0.0 0.00 0.00 0.00 53 1013.8
20190615182933 22 315 0.0 0.0 0.00 0.00 0.00 53 1013.9
20190615182730 22 112 0.0 0.0 0.00 0.00 0.00 53 1013.8
20190615182529 22 0 0.0 0.0 0.00 0.00 0.00 53 1013.9
20190615182326 22 112 0.0 0.0 0.00 0.00 0.00 53 1013.8
20190615182125 22 270 0.0 0.0 0.00 0.00 0.00 53 1013.7
20190615181922 22 315 0.0 0.0 0.00 0.00 0.00 53 1013.8
20190615181721 22 0 0.0 0.0 0.00 0.00 0.00 53 1013.7
20190615181518 22 315 0.0 0.0 0.00 0.00 0.00 53 1013.8
20190615181316 22 0 0.0 0.0 0.00 0.00 0.00 53 1013.8
20190615181114 22 0 0.0 0.0 0.00 0.00 0.00 53 1013.8
20190615180912 22 22 0.0 0.0 0.00 0.00 0.00 53 1013.7
20190615180710 22 112 0.0 0.0 0.00 0.00 0.00 53 1013.8
20190615180508 22 0 0.0 0.0 0.00 0.00 0.00 53 1013.8
20190615180306 22 112 0.0 0.0 0.00 0.00 0.00 54 1013.7
20190615180104 22 112 0.0 0.0 0.00 0.00 0.00 54 1013.7
20190615175901 22 112 0.0 0.0 0.00 0.00 0.00 55 1013.6
20190615175700 22 112 0.0 0.0 0.00 0.00 0.00 56 1013.8
20190615175457 22 112 0.0 0.0 0.00 0.00 0.00 55 1013.8
20190615175256 22 0 0.0 0.0 0.00 0.00 0.00 56 1013.7
20190615175053 21 270 0.0 0.0 0.00 0.00 0.00 56 1013.7
20190615174851 21 112 0.0 0.0 0.00 0.00 0.00 56 1013.8
20190615174649 21 0 0.0 0.0 0.00 0.00 0.00 56 1013.7
20190615174447 21 0 0.0 0.0 0.00 0.00 0.00 57 1013.6
20190615174245 21 0 0.0 0.0 0.00 0.00 0.00 57 1013.8
20190615174043 21 112 0.0 0.0 0.00 0.00 0.00 57 1013.7
20190615173841 21 112 0.0 0.0 0.00 0.00 0.00 56 1013.8
20190615173437 22 0 0.0 0.0 0.00 0.00 0.00 56 1013.7
20190615173235 22 0 0.0 0.0 0.00 0.00 0.00 57 1013.6
20190615173032 22 270 0.0 0.0 0.00 0.00 0.00 56 1013.6
20190615172831 22 112 0.0 0.0 0.00 0.00 0.00 56 1013.6
20190615172628 22 112 0.0 0.0 0.00 0.00 0.00 56 1013.6
20190615172427 22 112 0.0 0.0 0.00 0.00 0.00 56 1013.5
20190615172224 22 112 0.0 0.0 0.00 0.00 0.00 56 1013.5
20190615172022 22 112 0.0 0.0 0.00 0.00 0.00 56 1013.5
20190615171820 22 112 0.0 0.0 0.00 0.00 0.00 54 1013.6
20190615171618 23 112 0.0 0.0 0.00 0.00 0.00 54 1013.5
20190615171416 23 0 0.0 0.0 0.00 0.00 0.00 53 1013.5
20190615171215 23 112 0.0 0.0 0.00 0.00 0.00 53 1013.5
20190615171012 23 112 0.0 0.0 0.00 0.00 0.00 53 1013.4
20190615170810 23 112 0.0 0.0 0.00 0.00 0.00 53 1013.4
20190615170607 24 270 0.0 0.0 0.00 0.00 0.00 53 1013.4
20190615170406 25 112 0.0 0.0 0.00 0.00 0.00 52 1013.4
20190615170203 25 112 0.0 0.0 0.00 0.00 0.00 51 1013.3
20190615170002 25 112 0.0 0.0 0.00 0.00 0.00 51 1013.4
20190615165759 25 112 0.0 0.0 0.00 0.00 0.00 51 1013.2
20190615165558 25 112 0.0 0.0 0.00 0.00 0.00 52 1013.2
20190615165154 25 270 0.0 0.0 0.00 0.00 0.00 52 1013.3
20190615164951 24 22 0.0 0.0 0.00 0.00 0.00 52 1013.2
20190615164749 24 112 0.0 0.0 0.00 0.00 0.00 53 1013.2
20190615164547 24 112 0.0 0.0 0.00 0.00 0.00 52 1013.2
20190615164345 24 112 0.0 0.0 0.00 0.00 0.00 52 1013.3
20190615164143 24 112 0.0 0.0 0.00 0.00 0.00 52 1013.3
20190615163941 24 112 0.0 0.0 0.00 0.00 0.00 52 1013.3
20190615163739 24 112 0.0 0.0 0.00 0.00 0.00 53 1013.3
20190615163537 23 112 0.0 0.0 0.00 0.00 0.00 53 1013.3
20190615163334 23 112 0.0 0.0 0.00 0.00 0.00 53 1013.4
20190615163133 23 112 0.0 0.0 0.00 0.00 0.00 54 1013.4
20190615162930 22 0 0.0 0.0 0.00 0.00 0.00 54 1013.4
20190615162729 22 112 0.0 0.0 0.00 0.00 0.00 55 1013.5
20190615162526 22 112 0.0 0.0 0.00 0.00 0.00 55 1013.4
20190615162324 22 0 0.0 0.0 0.00 0.00 0.00 53 1013.4
20190615162122 22 112 0.0 0.0 0.00 0.00 0.00 53 1013.5
20190615161920 22 112 0.0 0.0 0.00 0.00 0.00 53 1013.5
20190615161718 22 0 0.0 0.0 0.00 0.00 0.00 53 1013.5
20190615161516 22 112 0.0 0.0 0.00 0.00 0.00 53 1013.5
20190615161314 23 270 0.0 0.0 0.00 0.00 0.00 53 1013.6
20190615161112 23 0 0.0 0.0 0.00 0.00 0.00 53 1013.6
20190615160910 23 112 0.0 0.0 0.00 0.00 0.00 53 1013.7
20190615160708 23 270 0.0 0.0 0.00 0.00 0.00 53 1013.7
20190615160505 23 67 0.0 0.0 0.00 0.00 0.00 52 1013.7
20190615160304 23 112 0.0 0.0 0.00 0.00 0.00 52 1013.6
20190615160101 23 112 0.0 0.0 0.00 0.00 0.00 51 1013.7
20190615155900 23 112 0.0 0.0 0.00 0.00 0.00 51 1013.7
20190615155657 24 112 0.0 0.0 0.00 0.00 0.00 51 1013.7
20190615155456 24 0 0.0 0.0 0.00 0.00 0.00 50 1013.7
20190615155253 23 270 0.0 0.0 0.00 0.00 0.00 50 1013.7
20190615155052 23 112 0.0 0.0 0.00 0.00 0.00 52 1013.7
20190615154849 23 112 0.0 0.0 0.00 0.00 0.00 51 1013.7
20190615154647 23 112 0.0 0.0 0.00 0.00 0.00 51 1013.8
20190615154445 23 0 0.0 0.0 0.00 0.00 0.00 51 1013.8
20190615154243 23 112 0.0 0.0 0.00 0.00 0.00 52 1013.9
20190615154041 24 112 0.0 0.0 0.00 0.00 0.00 51 1014.1
20190615153839 24 270 0.0 0.0 0.00 0.00 0.00 51 1014.0
20190615153637 24 112 0.0 0.0 0.00 0.00 0.00 50 1013.9
20190615153435 25 0 0.0 0.0 0.00 0.00 0.00 50 1014.0
20190615153232 25 112 0.0 0.0 0.00 0.00 0.00 50 1014.0
20190615153031 25 112 0.0 0.0 0.00 0.00 0.00 50 1014.0
20190615152828 25 112 0.0 0.0 0.00 0.00 0.00 49 1014.0
20190615152627 25 112 0.0 0.0 0.00 0.00 0.00 49 1014.0
20190615152424 25 112 0.0 0.0 0.00 0.00 0.00 49 1014.1
20190615152222 25 270 0.0 0.0 0.00 0.00 0.00 49 1013.9
20190615152020 25 270 0.0 0.0 0.00 0.00 0.00 49 1014.0
20190615151818 25 270 0.0 0.0 0.00 0.00 0.00 49 1014.0
20190615151616 25 22 0.0 0.0 0.00 0.00 0.00 50 1014.0
20190615151414 25 22 0.0 0.0 0.00 0.00 0.00 50 1014.0
20190615151212 24 112 0.0 0.0 0.00 0.00 0.00 51 1014.0
20190615151010 24 0 0.0 0.0 0.00 0.00 0.00 50 1014.0
20190615150807 23 0 0.0 0.0 0.00 0.00 0.00 50 1014.0
20190615150606 23 0 0.0 0.0 0.00 0.00 0.00 51 1013.9
20190615150403 23 22 0.0 0.0 0.00 0.00 0.00 51 1014.0
20190615150202 23 112 0.0 0.0 0.00 0.00 0.00 50 1014.1
20190615145959 23 112 0.0 0.0 0.00 0.00 0.00 50 1014.1
20190615145758 23 270 0.0 0.0 0.00 0.00 0.00 49 1014.0
20190615145555 24 0 0.0 0.0 0.00 0.00 0.00 50 1014.1
20190615145353 24 270 0.0 0.0 0.00 0.00 0.00 49 1014.1
20190615145151 25 112 0.0 0.0 0.00 0.00 0.00 49 1014.0
20190615144949 25 112 0.0 0.0 0.00 0.00 0.00 48 1014.0
20190615144748 25 112 0.0 0.0 0.00 0.00 0.00 46 1014.1
20190615144545 25 112 0.0 0.0 0.00 0.00 0.00 46 1014.1
20190615144343 25 112 0.0 0.0 0.00 0.00 0.00 45 1014.2
20190615144141 25 112 0.0 0.0 0.00 0.00 0.00 46 1014.2
20190615143939 25 270 0.0 0.0 0.00 0.00 0.00 45 1014.1
20190615143737 25 112 0.0 0.0 0.00 0.00 0.00 45 1014.1
20190615143534 25 270 0.0 0.0 0.00 0.00 0.00 46 1014.1
20190615143333 26 112 0.0 0.0 0.00 0.00 0.00 45 1014.2
20190615143130 26 22 0.0 0.0 0.00 0.00 0.00 45 1014.1
20190615142929 26 112 0.0 0.0 0.00 0.00 0.00 45 1014.1
20190615142726 26 112 0.0 0.0 0.00 0.00 0.00 45 1014.2
20190615142524 25 112 0.0 0.0 0.00 0.00 0.00 45 1014.2
20190615142322 25 112 0.0 0.0 0.00 0.00 0.00 46 1014.1
20190615142120 25 270 0.0 0.0 0.00 0.00 0.00 45 1014.3
20190615141918 25 112 0.0 0.0 0.00 0.00 0.00 45 1014.2
20190615141716 25 22 0.0 0.0 0.00 0.00 0.00 45 1014.2
20190615141514 25 270 0.0 0.0 0.00 0.00 0.00 47 1014.2
20190615141312 25 90 0.0 0.0 0.00 0.00 0.00 48 1014.3
20190615141110 24 112 0.0 0.0 0.00 0.00 0.00 48 1014.3
20190615140908 23 0 0.0 0.0 0.00 0.00 0.00 48 1014.3
20190615140705 23 270 0.0 0.0 0.00 0.00 0.00 47 1014.3
20190615140504 23 112 0.0 0.0 0.00 0.00 0.00 48 1014.3
20190615140301 23 112 0.0 0.0 0.00 0.00 0.00 49 1014.5
20190615140100 23 270 0.0 0.0 0.00 0.00 0.00 50 1014.4
20190615135857 23 270 0.0 0.0 0.00 0.00 0.00 48 1014.4
20190615135656 23 112 0.0 0.0 0.00 0.00 0.00 48 1014.4
20190615135453 23 112 0.0 0.0 0.00 0.00 0.00 49 1014.4
20190615135251 24 0 0.0 0.0 0.00 0.00 0.00 48 1014.5
20190615135049 24 112 0.0 0.0 0.00 0.00 0.00 48 1014.5
20190615134847 24 112 0.0 0.0 0.00 0.00 0.00 47 1014.5
20190615134645 25 112 0.0 0.0 0.00 0.00 0.00 47 1014.5
20190615134443 25 90 0.0 0.0 0.00 0.00 0.00 46 1014.5
20190615134241 25 157 0.0 0.0 0.00 0.00 0.00 46 1014.4
20190615134039 25 0 0.0 0.0 0.00 0.00 0.00 47 1014.5
20190615133836 25 112 0.0 0.0 0.00 0.00 0.00 47 1014.5
20190615133635 25 112 0.0 0.0 0.00 0.00 0.00 48 1014.5
20190615133432 25 67 0.0 0.0 0.00 0.00 0.00 48 1014.5
20190615133231 25 270 0.0 0.0 0.00 0.00 0.00 49 1014.6
20190615133028 24 270 0.0 0.0 0.00 0.00 0.00 49 1014.6
20190615132827 24 270 0.0 0.0 0.00 0.00 0.00 49 1014.6
20190615132625 24 22 0.0 0.0 0.00 0.00 0.00 48 1014.6
20190615132422 23 0 0.0 0.0 0.00 0.00 0.00 48 1014.7
20190615132220 24 270 0.0 0.0 0.00 0.00 0.00 48 1014.6
20190615132018 24 270 0.0 0.0 0.00 0.00 0.00 47 1014.8
20190615131816 24 270 0.0 0.0 0.00 0.00 0.00 46 1014.7
20190615131614 25 270 0.0 0.0 0.00 0.00 0.00 45 1014.7
20190615131412 25 112 0.0 0.0 0.00 0.00 0.00 45 1014.6
20190615131210 26 270 0.0 0.0 0.00 0.00 0.00 45 1014.7
20190615131007 25 22 0.0 0.0 0.00 0.00 0.00 47 1014.6
20190615130806 25 112 0.0 0.0 0.00 0.00 0.00 47 1014.7
20190615130603 25 112 0.0 0.0 0.00 0.00 0.00 46 1014.7
20190615130402 25 270 0.0 0.0 0.00 0.00 0.00 46 1014.8
20190615130159 25 270 0.0 0.0 0.00 0.00 0.00 47 1014.8
20190615125958 25 22 0.0 0.0 0.00 0.00 0.00 48 1014.8
20190615125755 25 270 0.0 0.0 0.00 0.00 0.00 49 1014.8
20190615125553 25 101 0.0 0.0 0.00 0.00 0.00 49 1014.8
20190615125351 25 22 0.0 0.0 0.00 0.00 0.00 49 1014.8
20190615125149 25 22 0.0 0.0 0.00 0.00 0.00 49 1014.8
20190615124947 25 270 0.0 0.0 0.00 0.00 0.00 50 1014.9
20190615124746 24 270 0.0 0.0 0.00 0.00 0.00 50 1014.9
20190615124543 24 112 0.0 0.0 0.00 0.00 0.00 52 1015.1
20190615124341 23 112 0.0 0.0 0.00 0.00 0.00 50 1015.0
20190615124139 23 22 0.0 0.0 0.00 0.00 0.00 52 1015.0
20190615123937 23 270 0.0 0.0 0.00 0.00 0.00 50 1015.1
20190615123533 23 112 0.0 0.0 0.00 0.00 0.00 52 1015.1
20190615123330 23 22 0.0 0.0 0.00 0.00 0.00 52 1015.1
20190615123129 23 22 0.0 0.0 0.00 0.00 0.00 51 1015.1
20190615122926 23 67 0.0 0.0 0.00 0.00 0.00 51 1015.3
20190615122724 23 0 0.0 0.0 0.00 0.00 0.00 52 1015.2
20190615122522 23 270 0.0 0.0 0.00 0.00 0.00 51 1015.2
20190615122320 23 22 0.0 0.0 0.00 0.00 0.00 49 1015.3
20190615122118 23 112 0.0 0.0 0.00 0.00 0.00 50 1015.2
20190615121916 24 22 0.0 0.0 0.00 0.00 0.00 50 1015.2
20190615121714 24 270 0.0 0.0 0.00 0.00 0.00 49 1015.2
20190615121512 24 112 0.0 0.0 0.00 0.00 0.00 54 1015.2
20190615121310 23 112 0.0 0.0 0.00 0.00 0.00 53 1015.3
20190615115653 22 22 0.0 0.0 0.00 0.00 0.00 56 1015.4
20190615115249 21 22 0.0 0.0 0.00 0.00 0.00 59 1015.4
20190615114840 21 112 0.0 0.0 0.00 0.00 0.00 60 1015.5
20190615114436 21 22 0.0 0.0 0.00 0.00 0.00 58 1015.5
20190615114234 21 270 0.0 0.0 0.00 0.00 0.00 58 1015.5
20190615114031 21 270 0.0 0.0 0.00 0.00 0.00 58 1015.5
20190615113830 21 270 0.0 0.0 0.00 0.00 0.00 57 1015.5
20190615113627 22 270 0.0 0.0 0.00 0.00 0.00 57 1015.4
20190615113426 22 112 0.0 0.0 0.00 0.00 0.00 57 1015.3
20190615113223 22 270 0.0 0.0 0.00 0.00 0.00 56 1015.5
20190615113021 23 22 0.0 0.0 0.00 0.00 0.00 56 1015.4
20190615112819 23 270 0.0 0.0 0.00 0.00 0.00 56 1015.5
20190615112617 23 112 0.0 0.0 0.00 0.00 0.00 57 1015.6
20190615112415 23 270 0.0 0.0 0.00 0.00 0.00 57 1015.5
20190615112214 23 270 0.0 0.0 0.00 0.00 0.00 56 1015.5
20190615112011 23 0 0.0 0.0 0.00 0.00 0.00 56 1015.5
20190615111809 23 0 0.0 0.0 0.00 0.00 0.00 56 1015.5
20190615111607 23 112 0.0 0.0 0.00 0.00 0.00 57 1015.5
20190615111405 23 112 0.0 0.0 0.00 0.00 0.00 56 1015.5
20190615111202 23 112 0.0 0.0 0.00 0.00 0.00 58 1015.5
20190615111001 22 22 0.0 0.0 0.00 0.00 0.00 59 1015.6
20190615110758 22 270 0.0 0.0 0.00 0.00 0.00 58 1015.5
20190615110557 22 112 0.0 0.0 0.00 0.00 0.00 59 1015.6
20190615110354 22 112 0.0 0.0 0.00 0.00 0.00 60 1015.5
20190615110152 22 112 0.0 0.0 0.00 0.00 0.00 60 1015.5
20190615105950 22 112 0.0 0.0 0.00 0.00 0.00 61 1015.5
20190615105748 22 0 0.0 0.0 0.00 0.00 0.00 61 1015.6
20190615105546 21 112 0.0 0.0 0.00 0.00 0.00 61 1015.6
20190615105344 21 112 0.0 0.0 0.00 0.00 0.00 61 1015.6
20190615105142 21 270 0.0 0.0 0.00 0.00 0.00 61 1015.6
20190615104940 21 112 0.0 0.0 0.00 0.00 0.00 61 1015.7
20190615104738 22 22 0.0 0.0 0.00 0.00 0.00 60 1015.6
20190615104536 22 112 0.0 0.0 0.00 0.00 0.00 60 1015.6
20190615104333 22 22 0.0 0.0 0.00 0.00 0.00 61 1015.7
20190615104132 22 112 0.0 0.0 0.00 0.00 0.00 61 1015.7
20190615103929 22 112 0.0 0.0 0.00 0.00 0.00 60 1015.7
20190615103728 22 270 0.0 0.0 0.00 0.00 0.00 61 1015.8
20190615103525 22 112 0.0 0.0 0.00 0.00 0.00 62 1015.8
20190615103324 22 0 0.0 0.0 0.00 0.00 0.00 60 1015.8
20190615103121 22 112 0.0 0.0 0.00 0.00 0.00 59 1015.8
20190615102919 22 0 0.0 0.0 0.00 0.00 0.00 62 1015.8
20190615102717 22 112 0.0 0.0 0.00 0.00 0.00 66 1015.8
20190615102515 22 0 0.0 0.0 0.00 0.00 0.00 66 1015.8
20190615102313 22 112 0.0 0.0 0.00 0.00 0.00 66 1015.9
20190615102111 21 270 0.0 0.0 0.00 0.00 0.00 65 1015.8
20190615101909 21 157 0.0 0.0 0.00 0.00 0.00 65 1015.9
20190615101707 21 67 0.0 0.0 0.00 0.00 0.00 66 1016.0
20190615101505 21 112 0.0 0.0 0.00 0.00 0.00 67 1015.9
20190615101303 21 112 0.0 0.0 0.00 0.00 0.00 66 1016.1
20190615101100 21 112 0.0 0.0 0.00 0.00 0.00 67 1016.0
20190615100859 21 0 0.0 0.0 0.00 0.00 0.00 68 1015.8
20190615100656 21 0 0.0 0.0 0.00 0.00 0.00 67 1015.9
20190615100455 21 45 0.0 0.0 0.00 0.00 0.00 66 1016.0
20190615100252 21 112 0.0 0.0 0.00 0.00 0.00 69 1015.9
20190615100050 21 112 0.0 0.0 0.00 0.00 0.00 70 1016.0
20190615095848 21 90 0.0 0.0 0.00 0.00 0.00 70 1016.0
20190615095647 21 270 0.0 0.0 0.00 0.00 0.00 71 1016.0
20190615095444 21 45 0.0 0.0 0.00 0.00 0.00 70 1016.0
20190615095242 21 270 0.0 0.0 0.00 0.00 0.00 70 1015.9
20190615095040 21 45 0.0 0.0 0.00 0.00 0.00 71 1015.9
20190615094838 20 270 0.0 0.0 0.00 0.00 0.00 72 1016.0
20190615094636 20 112 0.0 0.0 0.00 0.00 0.00 72 1015.9
20190615094434 20 112 0.0 0.0 0.00 0.00 0.00 74 1015.9
20190615094231 20 112 0.0 0.0 0.00 0.00 0.00 74 1015.9
20190615094030 19 112 0.0 0.0 0.00 0.00 0.00 73 1015.9
20190615093827 19 112 0.0 0.0 0.00 0.00 0.00 74 1015.9
20190615093626 19 90 0.0 0.0 0.00 0.00 0.00 74 1016.0
20190615093423 19 270 0.0 0.0 0.00 0.00 0.00 73 1016.0
20190615093221 19 112 0.0 0.0 0.00 0.00 0.00 76 1016.0
20190615093019 18 45 0.0 0.0 0.00 0.00 0.00 76 1016.0
20190615092817 18 112 0.0 0.0 0.00 0.00 0.00 78 1016.1
20190615092615 18 112 0.0 0.0 0.00 0.00 0.00 77 1016.0
20190615092211 18 270 0.0 0.0 0.00 0.00 0.00 76 1016.0
20190615091605 18 270 0.0 0.0 0.00 0.00 0.00 75 1016.0
20190615091402 18 112 0.0 0.0 0.00 0.00 0.00 78 1016.1
20190615091201 18 112 0.0 0.0 0.00 0.00 0.00 78 1016.1
20190615090958 18 270 0.0 0.0 0.00 0.00 0.00 78 1016.1
20190615090757 18 270 0.0 0.0 0.00 0.00 0.00 77 1016.0
20190615090554 18 0 0.0 0.0 0.00 0.00 0.00 78 1016.0
20190615090352 18 270 0.0 0.0 0.00 0.00 0.00 78 1015.9
20190615090150 18 112 0.0 0.0 0.00 0.00 0.00 78 1016.0
20190615085948 18 270 0.0 0.0 0.00 0.00 0.00 80 1016.0
20190615085746 18 112 0.0 0.0 0.00 0.00 0.00 80 1015.9
20190615085544 18 112 0.0 0.0 0.00 0.00 0.00 80 1015.9
20190615085342 18 33 0.0 0.0 0.00 0.00 0.00 80 1015.9
20190615085140 17 112 0.0 0.0 0.00 0.00 0.00 82 1015.9
20190615084938 17 112 0.0 0.0 0.00 0.00 0.00 84 1016.0
20190615084736 17 90 0.0 0.0 0.00 0.00 0.00 84 1015.9
20190615084533 17 270 0.0 0.0 0.00 0.00 0.00 82 1015.9
20190615084332 17 112 0.0 0.0 0.00 0.00 0.00 85 1016.0
20190615084129 17 112 0.0 0.0 0.00 0.00 0.00 85 1016.0
20190615083928 17 270 0.0 0.0 0.00 0.00 0.00 86 1015.9
20190615083725 17 270 0.0 0.0 0.00 0.00 0.00 85 1016.0
20190615083524 16 112 0.0 0.0 0.00 0.00 0.00 87 1015.8
20190615083321 16 112 0.0 0.0 0.00 0.00 0.00 87 1016.0
20190615083119 16 112 0.0 0.0 0.00 0.00 0.00 87 1015.9
20190615082917 16 270 0.0 0.0 0.00 0.00 0.00 88 1016.0
20190615082715 16 112 0.0 0.0 0.00 0.00 0.00 87 1016.0
20190615082513 16 270 0.0 0.0 0.00 0.00 0.00 89 1016.1
20190615082311 16 270 0.0 0.0 0.00 0.00 0.00 88 1016.1
20190615082109 16 270 0.0 0.0 0.00 0.00 0.00 87 1016.1
20190615081907 16 112 0.0 0.0 0.00 0.00 0.00 89 1016.1
20190615081704 16 112 0.0 0.0 0.00 0.00 0.00 89 1016.0
20190615081503 16 270 0.0 0.0 0.00 0.00 0.00 90 1016.0
20190615081300 16 112 0.0 0.0 0.00 0.00 0.00 92 1016.0
20190615081059 16 0 0.0 0.0 0.00 0.00 0.00 94 1016.0
20190615080856 16 270 0.0 0.0 0.00 0.00 0.00 94 1016.1
20190615080655 15 112 0.0 0.0 0.00 0.00 0.00 96 1016.0
20190615080452 15 112 0.0 0.0 0.00 0.00 0.00 97 1016.0
20190615080250 15 112 0.0 0.0 0.00 0.00 0.00 97 1016.0
20190615080048 15 112 0.0 0.0 0.00 0.00 0.00 100 1016.1
20190615075846 15 112 0.0 0.0 0.00 0.00 0.00 100 1016.0
20190615075644 15 270 0.0 0.0 0.00 0.00 0.00 100 1016.1
20190615075442 14 112 0.0 0.0 0.00 0.00 0.00 100 1016.0
20190615075240 14 112 0.0 0.0 0.00 0.00 0.00 100 1016.1
20190615075038 13 180 0.0 0.0 0.00 0.00 0.00 100 1016.0
20190615074835 13 180 0.0 0.0 0.00 0.00 0.00 100 1016.1
20190615074634 12 180 0.0 0.0 0.00 0.00 0.00 100 1016.1
20190615074431 12 180 0.0 0.0 0.00 0.00 0.00 100 1016.0
20190615074230 12 180 0.0 0.0 0.00 0.00 0.00 100 1016.1
20190615074027 11 180 0.0 0.0 0.00 0.00 0.00 100 1016.0
20190615073826 11 180 0.0 0.0 0.00 0.00 0.00 100 1016.1
20190615073623 11 180 0.0 0.0 0.00 0.00 0.00 100 1016.2
20190615073421 11 180 0.0 0.0 0.00 0.00 0.00 100 1016.2
20190615073219 10 180 0.0 0.0 0.00 0.00 0.00 100 1016.1
20190615073017 10 135 0.0 0.0 0.00 0.00 0.00 100 1016.1
20190615072815 10 180 0.0 0.0 0.00 0.00 0.00 100 1016.1
20190615072613 10 180 0.0 0.0 0.00 0.00 0.00 100 1016.1
20190615072411 9 135 0.0 0.0 0.00 0.00 0.00 100 1016.1
20190615072209 9 135 0.0 0.0 0.00 0.00 0.00 100 1016.1
20190615072006 9 180 0.0 0.0 0.00 0.00 0.00 100 1016.1
20190615071805 9 135 0.0 0.0 0.00 0.00 0.00 100 1016.1
20190615071158 8 135 0.0 0.0 0.00 0.00 0.00 100 1016.1
20190615070957 8 135 0.0 0.0 0.00 0.00 0.00 100 1016.0
20190615070754 8 45 0.0 0.0 0.00 0.00 0.00 100 1016.1
20190615070552 8 45 0.0 0.0 0.00 0.00 0.00 100 1016.0
20190615070148 8 135 0.0 0.0 0.00 0.00 0.00 100 1016.0
20190615065946 8 135 0.0 0.0 0.00 0.00 0.00 100 1016.1
20190615065744 8 135 0.0 0.0 0.00 0.00 0.00 100 1016.0